Location: Newark
(43.6583°N, 1.6617°E)
Time: 04:18:39
(UTC+00:00)

Tiros 1 - Pass Details

Date: 29 August 2019
Orbit: 630 x 664 km, 48.4° (Epoch: 21 September)

Event Time Altitude Azimuth Distance (km) Brightness Sun altitude
Rises 21:36:25 0° 242° (WSW) 2,911 10.6 -28.6°
Enters shadow 21:38:30 - 242° (WSW) 2,093 9.9 -28.8°
Reaches altitude 10° 21:38:44 10° 242° (WSW) 2,004 - -28.8°
Maximum altitude 21:43:21 85° 153° (SSE) 636 - -29.4°
Drops below altitude 10° 21:47:59 10° 66° (ENE) 2,013 - -29.9°
Sets 21:50:19 0° 66° (ENE) 2,925 - -30.1°
